Location: Stilling
(56.0622°N, 9.9882°E)
Time: 23:27:21
(UTC+00:00)

Daily predictions for brighter satellites

Satellite Brightness Start Highest point End
(mag) Time Altitude Azimuth Time Altitude Azimuth Time Altitude Azimuth
NOSS 0 Rocket 3.9 20:46:24 10° SSW 20:52:33 79° ESE 20:58:46 10° NE
Cosmos 2184 Rocket 4.1 20:47:31 10° S 20:53:49 82° E 21:00:13 10° NNE
Cosmos 2278 Rocket 3.7 20:49:08 10° NW 20:53:59 30° WSW 20:58:49 10° SSW
Cosmos 2333 Rocket 3.1 20:49:39 10° SW 20:55:17 57° NW 21:01:00 10° NNE
Cosmos 2344 3.9 20:54:18 10° SSW 21:01:17 45° ESE 21:09:01 10° NE
Cosmos 2221 3.7 20:57:42 10° NNW 21:01:48 40° W 21:05:52 10° SSW
Cosmos 2297 4.0 20:59:45 10° NW 21:05:28 66° WSW 21:11:07 10° SSE
Cosmos 1340 4.4 21:03:39 10° SE 21:06:18 19° E 21:08:58 10° NE
USA 267 3.3 21:01:05 10° ESE 21:07:40 87° SSW 21:14:15 10° WNW
SPOT 5 3.2 21:06:07 10° S 21:10:49 59° WSW 21:15:20 10° NNW
Cosmos 1825 2.6 21:07:29 10° S 21:11:08 47° E 21:14:49 10° NNE
SL-16 R/B 2.6 21:07:25 10° S 21:12:44 43° ESE 21:18:06 10° NE
In-Cosmos 22 Rocket 4.2 21:09:12 10° SSW 21:14:31 83° WNW 21:19:59 10° NNE
CARTOSAT-1 4.4 21:10:59 10° S 21:15:09 47° W 21:19:21 10° NNW
Cosmos 304 Rocket 4.1 21:10:56 10° NNW 21:15:45 63° ENE 21:20:33 10° SE
Cosmos 1408 2.5 21:14:33 10° S 21:18:07 80° E 21:21:43 10° NNE
Nadezhda 3 Rocket 4.4 21:15:26 10° NNW 21:21:45 67° W 21:27:59 10° S
Cosmos 2151 3.2 21:18:02 10° S 21:22:11 55° E 21:26:22 10° NNE
Cosmos 1420 Rocket 4.3 21:17:54 10° NNW 21:23:10 67° WSW 21:28:26 10° SSE
Terra 2.3 21:21:59 10° S 21:26:41 58° WSW 21:31:24 10° NNW
BREEZE-M DEB (TANK) 3.4 21:25:08 10° W 21:29:16 24° SSW 21:31:17 12° SSE
Cosmos 1346 Rocket 4.4 21:26:44 10° SE 21:29:39 21° E 21:32:40 10° NE
SAR-Lupe-2 4.4 21:26:26 10° N 21:29:59 53° WNW 21:33:29 10° SW
Cosmos 2112 Rocket 4.2 21:25:14 10° SSW 21:30:36 81° WNW 21:36:01 10° NNE
JB-3 4.5 21:27:09 10° NNE 21:30:55 53° E 21:34:40 10° S
Cosmos 1782 3.9 21:27:58 10° N 21:31:36 33° ENE 21:35:08 10° SE
ALOS 2 3.9 21:30:53 10° SE 21:34:48 32° ENE 21:38:43 10° N
Cosmos 2154 Rocket 4.2 21:28:58 10° SSW 21:35:12 80° WNW 21:41:30 10° N
Thor Agena Rocket 4.4 21:31:09 10° NNE 21:35:43 32° E 21:39:54 12° SSE
Cosmos 1076 Rocket 4.1 21:32:11 10° SSW 21:36:23 58° WNW 21:40:36 10° N
Cosmos 1933 3.4 21:33:44 10° N 21:37:47 75° ENE 21:41:27 12° SSE
Cosmos 1328 Rocket 3.6 21:33:48 10° N 21:38:09 76° ENE 21:42:06 12° SSE
SL-8 Rocket 4.2 21:34:13 10° S 21:40:12 56° E 21:46:13 10° NNE
Cosmos 1515 Rocket 4.0 21:36:11 10° N 21:40:30 53° ENE 21:44:23 12° SSE
Cosmos 2369 Rocket 2.2 21:35:04 10° NW 21:40:42 89° WSW 21:46:00 12° SSE
Genesis I 3.9 21:37:52 10° WSW 21:41:44 59° NW 21:45:36 10° NE
GP-B 3.7 21:42:01 10° N 21:46:18 45° E 21:50:03 13° SSE
Cosmos 1980 4.4 21:44:34 10° SW 21:50:08 57° NW 21:55:45 10° NNE
Cosmos 2341 Rocket 4.0 21:44:10 10° S 21:50:23 81° E 21:56:38 10° NNE
Cosmos 1766 Rocket 3.6 21:46:46 10° S 21:51:06 69° E 21:55:33 10° NNE
Cosmos 2058 4.3 21:48:18 10° SW 21:52:09 37° WNW 21:56:01 10° N
Cosmos 1680 Rocket 4.5 21:51:19 10° SW 21:56:31 51° NW 22:01:44 10° NNE
APEX 4.3 21:54:37 10° WNW 21:56:45 20° WSW 21:58:46 11° SSW
Cosmos 2219 Rocket 4.3 21:52:06 10° W 21:57:06 32° NW 22:02:08 10° NNE
Cosmos 1727 Rocket 4.2 21:51:13 10° N 21:57:29 70° ENE 22:03:09 13° SSE
CREW DRAGON DEMO-1 DEB 3.4 21:56:08 10° WSW 21:58:58 35° S 22:01:49 10° ESE
Cosmos 1110 Rocket 4.1 21:54:39 10° NNW 21:59:59 83° ENE 22:04:45 13° SSE
Cosmos 44 3.1 21:56:27 10° SW 22:00:49 86° NW 22:05:24 10° NE
Cosmos 1151 Rocket 3.3 21:58:50 10° NNW 22:03:08 63° W 22:06:54 13° S
Cosmos 332 Rocket 4.5 21:58:44 10° NW 22:03:18 45° WSW 22:07:25 13° S
Cosmos 1452 Rocket 4.2 22:00:50 10° NW 22:05:53 47° WSW 22:10:25 13° S
Cosmos 2237 Rocket 3.2 22:00:56 10° WSW 22:06:30 50° NW 22:12:04 10° NNE
Cosmos 1943 Rocket 2.8 22:03:42 10° NW 22:09:07 47° WSW 22:13:51 13° S
ATLAS 5 CENTAUR R/B 3.6 22:05:34 10° WNW 22:10:01 37° N 22:15:09 10° ENE
Cosmos 1812 4.1 22:07:05 10° N 22:10:32 29° ENE 22:13:46 11° SE
Cosmos 405 2.9 22:07:17 10° NNW 22:10:51 86° ENE 22:13:30 17° SSE
Gbstr 26 Del rocket 3.2 22:07:28 10° SW 22:10:54 34° SSE 22:14:34 10° E
Lacrosse 5 rocket 2.8 22:10:44 10° W 22:13:47 20° SW 22:15:49 14° S
USA 215 3.7 22:09:15 10° ENE 22:15:18 38° SE 22:21:18 10° SSW
EO 1 Del DPAF 3.5 22:12:45 10° NNE 22:16:28 53° ESE 22:19:17 16° S
MOS 1-B Rocket 4.4 22:10:04 10° NNE 22:17:30 67° ESE 22:23:20 12° S
Cosmos 1743 Rocket 4.1 22:14:29 15° SSE 22:17:44 44° E 22:21:55 10° NNE
ATLAS 5 CENTAUR R/B 2.7 22:15:52 10° NW 22:17:49 33° NNE 22:20:49 10° E
ISS -2.6 22:15:56 10° SSW 22:18:37 22° SSE 22:21:19 10° ESE
COSMOS 2455 3.9 22:13:47 10° NW 22:19:10 34° WSW 22:23:56 13° S
Meteor 2-6 Rocket 4.4 22:14:16 10° N 22:19:42 64° ENE 22:24:17 14° SSE
Cosmos 1302 Rocket 4.3 22:14:49 10° NNW 22:20:02 65° ENE 22:24:50 12° SE
Meteor 2-3 Rocket 3.8 22:15:35 12° S 22:20:52 75° E 22:26:39 10° NNE
Okean 3 Rocket 4.0 22:16:34 10° SSW 22:20:56 60° WNW 22:25:19 10° N
IRIDIUM 104 4.3 22:16:22 13° S 22:21:03 87° E 22:26:19 10° N
Cosmos 389 Rocket 4.1 22:19:10 10° N 22:22:10 26° ENE 22:25:05 10° ESE
RESURS DK-1 3.0 22:19:47 10° NW 22:23:44 43° WSW 22:26:41 16° S
Cosmos 1606 4.2 22:21:28 10° NNW 22:24:54 30° W 22:28:20 10° SSW
Cosmos 1633 2.7 22:22:50 17° S 22:25:25 58° E 22:28:59 10° NNE
Cosmos 2263 4.4 22:20:14 10° NW 22:25:54 63° WSW 22:30:38 15° SSE
Meteor 2-12 Rocket 4.5 22:21:00 11° S 22:27:01 88° W 22:33:14 10° NNE
IRIDIUM 114 4.4 22:25:30 13° S 22:30:12 82° W 22:35:29 10° N
Lacrosse 5 3.6 22:31:31 13° SE 22:32:50 14° SE 22:35:28 10° E
CZ-4C R/B 3.3 22:28:08 10° NW 22:34:49 49° SW 22:41:25 15° SSE
Cosmos 1408 Rocket 3.7 22:30:56 13° SSW 22:34:55 78° WNW 22:39:25 10° N
Cosmos 2228 Rocket 3.2 22:33:30 10° NNW 22:38:07 84° W 22:41:37 17° S
NOSS 2-1 (C) 4.3 22:36:00 10° NW 22:40:21 64° NNE 22:46:21 10° ESE
Spot 4 4.5 22:37:24 14° S 22:41:15 46° W 22:45:53 10° NNW
Cosmos 1340 3.2 22:37:58 11° SSW 22:41:33 54° WNW 22:45:17 10° N
Cosmos 1943 3.5 22:38:06 14° S 22:42:42 50° ESE 22:48:09 10° NE
Cosmos 494 Rocket 4.2 22:40:27 15° S 22:44:36 56° ESE 22:49:39 10° NE
NOSS 2-1 (D) 4.3 22:40:43 10° NW 22:45:09 67° NNE 22:51:15 10° ESE
GEOS 3 Rocket 3.7 22:39:49 10° NE 22:45:15 88° NW 22:50:41 10° SW
Cosmos 1825 4.4 22:43:52 10° WSW 22:46:53 22° WNW 22:49:56 10° N
Cosmos 1500 Rocket 3.5 22:43:45 17° S 22:47:07 76° E 22:51:30 10° NNE
Meteor 1-10 Rocket 4.2 22:42:18 10° NNW 22:47:54 85° ENE 22:52:24 16° SSE
USA 267 3.5 22:44:53 10° SE 22:51:07 49° SW 22:57:28 10° WNW
SL-4 R/B 0.5 22:51:02 32° SE 22:51:40 55° ENE 22:53:34 10° N
Cosmos 1656 Rocket 3.9 22:47:31 10° NW 22:52:48 55° WSW 22:56:55 17° S
Helios 1B rocket 4.5 22:51:16 10° NE 22:53:59 17° E 22:56:41 10° SE
Cosmos 2366 rocket 4.4 22:49:54 10° SSW 22:56:12 64° WNW 23:02:30 10° N
SL-16 R/B 3.1 22:51:17 10° WSW 22:56:50 52° NW 23:02:26 10° NNE
Cosmos 1821 Rocket 4.0 22:56:55 16° S 23:01:54 74° E 23:08:00 10° NNE
Cosmos 2123 Rocket 4.1 22:57:56 10° N 23:04:09 76° ENE 23:09:20 15° SSE
Helios 1A 2.9 23:02:13 18° SSE 23:05:15 88° WSW 23:09:28 10° NNW
Terra 4.4 23:04:27 10° W 23:05:29 11° W 23:06:30 10° WNW
Cosmos 1805 Rocket 3.8 23:02:29 18° S 23:05:34 60° E 23:09:55 10° NNE
Cosmos 1346 Rocket 3.4 23:02:13 12° SW 23:05:43 51° WNW 23:09:36 10° N
Cosmos 1782 4.0 23:04:22 10° NNW 23:07:54 32° W 23:10:44 14° SSW
YAOGAN 11 4.2 23:06:43 17° SSE 23:10:07 86° ENE 23:14:40 10° NNW
ALOS 2 3.3 23:07:53 17° SSW 23:11:02 43° W 23:15:15 10° NNW
Meteor 1-27 Rocket 3.8 23:05:27 10° NNW 23:11:07 82° ENE 23:15:51 16° SSE
SL-4 R/B 1.3 23:13:52 26° S 23:15:02 46° SE 23:17:37 10° NE
Thor Agena Rocket 4.2 23:10:20 10° N 23:15:17 52° WNW 23:20:10 10° SW
Cosmos 2344 4.0 23:07:47 10° WSW 23:15:18 71° NNW 23:24:24 10° ENE
Cosmos 44 Rocket 3.2 23:17:23 10° SW 23:22:07 82° SE 23:26:57 10° NE
Cosmos 2369 Rocket 3.8 23:19:55 10° NW 23:24:02 21° WSW 23:27:47 11° SSW
USA 32 4.1 23:23:45 17° S 23:27:48 73° E 23:33:05 10° N
Cosmos 1707 Rocket 3.6 23:24:38 10° NNW 23:29:07 72° W 23:32:17 19° S
Cosmos 1992 Rocket 4.0 23:26:36 10° NNW 23:31:54 88° WSW 23:36:32 14° SSE
Cosmos 1605 Rocket 4.4 23:27:20 15° SSE 23:32:25 54° E 23:38:29 10° NNE
Cosmos 1603 3.9 23:26:57 10° SW 23:32:40 76° NW 23:38:28 10° NNE
CREW DRAGON DEMO-1 DEB 4.2 23:31:51 10° WSW 23:34:03 21° SSW 23:34:03 21° SSW
Cosmos 292 Rocket 4.3 23:31:19 10° NW 23:35:53 46° WSW 23:39:09 18° S
NOSS 2-1 (E) 4.1 23:31:10 10° NW 23:35:55 80° SW 23:42:34 10° SE
Cosmos 1934 Rocket 4.1 23:31:25 16° S 23:36:28 80° E 23:42:49 10° NNE
Sich 1 3.0 23:33:33 18° S 23:36:43 87° E 23:41:08 10° NNE
Resurs 1-4 Rocket 4.1 23:42:30 10° NE 23:46:14 19° E 23:49:56 10° SE
Cosmos 1812 3.7 23:42:50 10° NNW 23:46:23 35° W 23:48:50 17° SSW
Cosmos 1633 Rocket 3.2 23:43:36 18° S 23:46:47 67° E 23:51:12 10° NNE
Cosmos 1862 Rocket 3.6 23:46:34 10° NNW 23:51:04 84° WSW 23:54:30 17° S
PSLV R/B 3.8 23:47:13 10° NNE 23:51:28 63° ESE 23:54:37 18° S
ISS -3.3 23:51:45 10° WSW 23:54:54 38° S 23:58:04 10° ESE
